[[{"header":{"parameterUnit":"m.s-1","parameterCategory":2,"la1":30.2992,"la2":30.254,"lo1":-89.0895,"lo2":-89.0443,"dy":0.0025,"dx":0.0025,"nx":19,"ny":19,"refTime":"2026-04-13T09:00:00:Z","depth":"0","parameterNumber":2,"parameterNumberName":"U-component_of_CURRENTS"},"data":[0,0,0,0.114,0.114,0.1147,0.1147,0.1205,0.1206,0,0,0,0,0,0,0,0,0,0,0,0.114,0.114,0.114,0.114,0.1147,0.1147,0.1205,0.1206,0,0,0,0,0,0,0,0,0,0,0,0.114,0.114,0.114,0.114,0.1146,0.1147,0.1205,0.119,0,0,0,0,0,0,0,0,0,0,0.1178,0.1163,0.114,0.114,0.114,0.1146,0.1147,0.1188,0.1191,0.1215,0,0.1211,0,0.1207,0.121,0.1211,0,0,0,0.1147,0.1161,0.1166,0.114,0.114,0.1146,0.1146,0.1189,0.1192,0.1218,0.1211,0.1213,0.1208,0.1211,0.1211,0.1229,0.1229,0,0,0.1147,0.1141,0.1164,0.1167,0.1136,0.1145,0.1146,0.119,0.119,0.1212,0.1214,0.1209,0.1211,0.1212,0.123,0.1229,0,0,0,0.1141,0.1141,0.1144,0.1165,0.1161,0.1145,0.1146,0.1188,0.119,0.1215,0.121,0.1212,0.1213,0.123,0.1229,0.1177,0,0,0,0.1141,0.1137,0.1143,0.114,0.1159,0.1166,0.1143,0.1187,0.1191,0.121,0.1212,0.1213,0.123,0.123,0.1179,0.1157,0,0,0,0.1141,0.1137,0.1136,0.114,0.1139,0.1165,0.1169,0.1187,0.1188,0.1211,0.1213,0.123,0.123,0.1181,0.116,0.1147,0,0,0,0.1137,0.1131,0.1136,0.1124,0.1139,0.1131,0.1169,0.117,0.1184,0.1212,0.123,0.123,0.1182,0.1162,0.1149,0.11,0.1087,0,0,0.1128,0.1129,0.1121,0.1126,0.1107,0.1131,0.1115,0.1151,0.1183,0.1222,0.1222,0.1179,0.1161,0.1147,0.1059,0.1047,0,0,0,0.1117,0.1107,0.1103,0.1092,0.1094,0.1087,0.1116,0.1129,0.1153,0.1187,0.1179,0.1169,0.1162,0.1137,0.1128,0.0895,0.1226,0.1226,0.1226,0.109,0.1086,0.1064,0.1058,0.1053,0.1059,0.106,0.1085,0.1122,0.112,0.1126,0.108,0.1051,0.1044,0.0804,0.1126,0.1126,0.1126,0.1126,0.1061,0.104,0.1032,0.1013,0.1007,0.1,0.1014,0.1032,0.1044,0.1077,0.1073,0.1082,0.1031,0.0779,0.1123,0.1123,0.1124,0.1124,0.1124,0.104,0.1027,0.1018,0.0987,0.0961,0.0962,0.0943,0.0964,0.1,0.0992,0.0985,0.0985,0.0765,0.0994,0.0994,0.0994,0.0994,0.0994,0.0994,0.1021,0.1009,0.0984,0.0958,0.0931,0.0908,0.0901,0.0903,0.0906,0.0924,0.0924,0.0706,0.1041,0.1048,0.0991,0.0991,0.0992,0.0992,0.0992,0.0978,0.0991,0.095,0.0924,0.0865,0.0805,0.0817,0.0792,0.0807,0.08,0.0559,0.0894,0.091,0.0918,0.0922,0.0837,0.0837,0.0837,0.0837,0.0955,0.0958,0.09,0.0853,0.0798,0.0754,0.0647,0.0604,0.0488,0.0371,0.0361,0.0332,0.0349,0.0331,0.0351,0.0344,0.0113,0.0112,0.0111,0.0918,0.0911,0.0858,0.0826,0.0759,0.0683,0.0531,0.0324,0.0121,0.0057,0.0037,0.0068,0.0005,0.005,0.0015,0.0062,0.0051,0,0]},{"header":{"parameterUnit":"m.s-1","parameterCategory":2,"la1":30.2992,"la2":30.254,"lo1":-89.0895,"lo2":-89.0443,"dy":0.0025,"dx":0.0025,"nx":19,"ny":19,"refTime":"2026-04-13T09:00:00:Z","depth":"0","parameterNumber":3,"parameterNumberName":"V-component_of_CURRENTS"},"data":[0,0,0,0.0079,0.0079,0.0091,0.0091,0.0101,0.0101,0,0,0,0,0,0,0,0,0,0,0,0.0074,0.0074,0.0079,0.0079,0.0091,0.0091,0.0101,0.0101,0,0,0,0,0,0,0,0,0,0,0,0.0074,0.0074,0.0074,0.0079,0.0091,0.0091,0.0101,0.0093,0,0,0,0,0,0,0,0,0,0,0.0082,0.0081,0.0074,0.0074,0.0079,0.0091,0.0091,0.0093,0.0094,0.0094,0,0.0095,0,0.0099,0.0101,0.0101,0,0,0,0.0079,0.0081,0.0081,0.0074,0.0079,0.0091,0.0086,0.0093,0.0094,0.0095,0.0096,0.0096,0.0099,0.0101,0.0101,0.0112,0.0112,0,0,0.0079,0.0079,0.0081,0.0082,0.0082,0.0085,0.0086,0.0094,0.0096,0.0096,0.0096,0.0099,0.0101,0.0102,0.0112,0.0112,0,0,0,0.0077,0.0078,0.0079,0.0081,0.0084,0.0086,0.0086,0.0096,0.0095,0.0096,0.0099,0.0102,0.0102,0.0112,0.0112,0.0119,0,0,0,0.0076,0.0077,0.0079,0.0079,0.0084,0.0092,0.0088,0.0095,0.0096,0.0099,0.0102,0.0102,0.0112,0.0112,0.0118,0.0128,0,0,0,0.0074,0.0077,0.0077,0.0079,0.0084,0.0091,0.0092,0.0095,0.0097,0.0101,0.0102,0.0112,0.0112,0.0118,0.0128,0.015,0,0,0,0.0074,0.007,0.0078,0.0078,0.0084,0.009,0.0092,0.0099,0.0103,0.0102,0.0112,0.0112,0.0118,0.0127,0.0149,0.0227,0.0236,0,0,0.0066,0.0069,0.007,0.0077,0.0082,0.0089,0.01,0.0106,0.0105,0.0108,0.0109,0.0118,0.0127,0.015,0.0234,0.0244,0,0,0,0.0066,0.0065,0.0069,0.0076,0.0085,0.0099,0.0105,0.011,0.0116,0.0108,0.0119,0.0125,0.0139,0.0184,0.0191,0.025,0.0112,0.0112,0.0112,0.0044,0.0056,0.0059,0.0073,0.0084,0.0105,0.0119,0.0127,0.0121,0.0125,0.0131,0.0153,0.0201,0.0207,0.0266,0.0127,0.0127,0.0127,0.0127,0.0028,0.0031,0.0052,0.0058,0.0083,0.0096,0.0127,0.0134,0.0156,0.014,0.0153,0.0189,0.0216,0.0276,0.0128,0.0127,0.0127,0.0127,0.0127,0.0009,0.0014,0.0021,0.0042,0.0066,0.0096,0.0138,0.0152,0.0164,0.0179,0.0235,0.0236,0.0289,0.0184,0.0184,0.0184,0.0184,0.0185,0.0185,-0.0012,-0.0002,0.0009,0.003,0.0052,0.009,0.0143,0.0182,0.024,0.0257,0.0258,0.0313,0.0171,0.017,0.0187,0.0186,0.0186,0.0186,0.0186,-0.0026,-0.0016,-0.0001,0.0018,0.0073,0.0133,0.0174,0.0285,0.0317,0.0365,0.0434,0.0306,0.0316,0.0311,0.0314,0.0367,0.0367,0.0367,0.0367,-0.0029,-0.0026,0.0009,0.0044,0.0097,0.0157,0.0275,0.0384,0.05,0.0559,0.0539,0.0548,0.0538,0.056,0.0549,0.0556,0.067,0.067,0.067,-0.0024,-0.0016,0.0012,0.0048,0.0115,0.02,0.0325,0.0453,0.0615,0.0685,0.0605,0.0592,0.0603,0.0582,0.0613,0.0593,0.0602,0,0]}],[{"header":{"parameterUnit":"m.s-1","parameterCategory":2,"la1":30.2992,"la2":30.254,"lo1":-89.0895,"lo2":-89.0443,"dy":0.0025,"dx":0.0025,"nx":19,"ny":19,"refTime":"2026-04-13T09:00:00:Z","depth":"2","parameterNumber":2,"parameterNumberName":"U-component_of_CURRENTS"},"data":[0,0,0,0.1145,0.1145,0.1145,0.1145,0.1137,0.1137,0,0,0,0,0,0,0,0,0,0,0,0.1149,0.1149,0.1145,0.1145,0.1145,0.1145,0.1137,0.1137,0,0,0,0,0,0,0,0,0,0,0,0.1149,0.1149,0.1149,0.1145,0.1145,0.1145,0.1137,0.1139,0,0,0,0,0,0,0,0,0,0,0.1141,0.1149,0.1149,0.1149,0.1145,0.1145,0.1145,0.1139,0.1139,0.1135,0,0.1139,0,0.1136,0.1136,0.1136,0,0,0,0.1145,0.1149,0.1145,0.1149,0.1145,0.1145,0.1145,0.1139,0.1139,0.1135,0.1139,0.1138,0.1136,0.1136,0.1136,0.1165,0.1166,0,0,0.1145,0.1151,0.1145,0.1145,0.1149,0.1145,0.1145,0.1139,0.1143,0.1139,0.1138,0.1136,0.1136,0.1136,0.1165,0.1165,0,0,0,0.1145,0.1152,0.1148,0.1145,0.1145,0.1145,0.1145,0.1143,0.1141,0.1138,0.1136,0.1136,0.1136,0.1164,0.1165,0.1124,0,0,0,0.1145,0.1152,0.1148,0.1152,0.1145,0.1145,0.1149,0.1141,0.114,0.1136,0.1136,0.1136,0.1164,0.1165,0.1124,0.1094,0,0,0,0.1149,0.1152,0.1152,0.1152,0.1151,0.1145,0.1143,0.1141,0.1139,0.1136,0.1136,0.1164,0.1165,0.1124,0.1095,0.1083,0,0,0,0.1154,0.1149,0.1153,0.1141,0.1151,0.1135,0.1143,0.1145,0.1145,0.1136,0.1164,0.1165,0.1124,0.1096,0.1084,0.1028,0.102,0,0,0.1147,0.1149,0.1138,0.1141,0.1121,0.1135,0.1124,0.1137,0.1159,0.1164,0.1165,0.1124,0.1095,0.1083,0.1082,0.1071,0,0,0,0.1134,0.1129,0.1121,0.1114,0.1106,0.1103,0.1122,0.1132,0.1154,0.1163,0.1155,0.1139,0.1132,0.1101,0.1094,0.1169,0.1169,0.1169,0.1169,0.113,0.112,0.1098,0.1088,0.1083,0.1092,0.1093,0.1119,0.1139,0.1161,0.1128,0.1121,0.109,0.1083,0.1162,0.1162,0.1161,0.1161,0.1161,0.1105,0.1081,0.1078,0.1053,0.1052,0.1049,0.1065,0.1088,0.1097,0.1125,0.112,0.1088,0.1072,0.1159,0.1159,0.1159,0.116,0.116,0.116,0.1091,0.1074,0.1064,0.1034,0.1013,0.1017,0.0999,0.1022,0.1059,0.1052,0.1034,0.1034,0.1073,0.1055,0.1055,0.1055,0.1055,0.1055,0.1055,0.107,0.1057,0.1032,0.1006,0.098,0.0958,0.0956,0.0959,0.0964,0.0983,0.0983,0.1085,0.1089,0.1068,0.1052,0.1052,0.1053,0.1053,0.1053,0.1026,0.1038,0.0996,0.097,0.0912,0.0854,0.0869,0.0846,0.0863,0.0856,0.0949,0.0953,0.0958,0.0965,0.0942,0.0894,0.0894,0.0894,0.0894,0.1002,0.1004,0.0946,0.0899,0.0845,0.0803,0.0697,0.0632,0.0682,0.0676,0.0685,0.0685,0.0697,0.0688,0.0701,0.0674,0.0556,0.0555,0.0554,0.0966,0.0959,0.0906,0.0873,0.0806,0.0732,0.0581,0.0329,0.0286,0.0537,0.0584,0.088,0.0907,0.0915,0.0927,0.0938,0.0905,0,0]},{"header":{"parameterUnit":"m.s-1","parameterCategory":2,"la1":30.2992,"la2":30.254,"lo1":-89.0895,"lo2":-89.0443,"dy":0.0025,"dx":0.0025,"nx":19,"ny":19,"refTime":"2026-04-13T09:00:00:Z","depth":"2","parameterNumber":3,"parameterNumberName":"V-component_of_CURRENTS"},"data":[0,0,0,-0.0197,-0.0197,-0.0217,-0.0217,-0.0295,-0.0296,0,0,0,0,0,0,0,0,0,0,0,-0.0186,-0.0186,-0.0196,-0.0197,-0.0217,-0.0217,-0.0295,-0.0296,0,0,0,0,0,0,0,0,0,0,0,-0.0186,-0.0186,-0.0185,-0.0197,-0.0217,-0.0217,-0.0295,-0.0269,0,0,0,0,0,0,0,0,0,0,-0.0244,-0.0209,-0.0186,-0.0185,-0.0197,-0.0217,-0.0217,-0.0267,-0.0271,-0.0298,0,-0.0289,0,-0.0293,-0.0301,-0.0301,0,0,0,-0.0207,-0.0206,-0.0224,-0.0185,-0.0197,-0.0216,-0.0211,-0.0269,-0.0273,-0.0302,-0.029,-0.0293,-0.0294,-0.0302,-0.0302,-0.0267,-0.0266,0,0,-0.0206,-0.0183,-0.0221,-0.0226,-0.0188,-0.021,-0.0211,-0.0271,-0.0263,-0.029,-0.0294,-0.0295,-0.0302,-0.0303,-0.0268,-0.0267,0,0,0,-0.0196,-0.0182,-0.0197,-0.0223,-0.0221,-0.021,-0.0212,-0.026,-0.0268,-0.0295,-0.0296,-0.0303,-0.0304,-0.0269,-0.0268,-0.02,0,0,0,-0.0196,-0.0176,-0.0196,-0.0182,-0.0219,-0.023,-0.0199,-0.0264,-0.027,-0.0296,-0.0303,-0.0305,-0.0271,-0.0269,-0.0204,-0.0204,0,0,0,-0.0187,-0.0175,-0.0175,-0.0181,-0.0187,-0.0229,-0.024,-0.0265,-0.0271,-0.0302,-0.0305,-0.0271,-0.0269,-0.0208,-0.0209,-0.0182,0,0,0,-0.0168,-0.0165,-0.0174,-0.0165,-0.0187,-0.0185,-0.024,-0.0236,-0.0252,-0.0303,-0.027,-0.0268,-0.0209,-0.0212,-0.0185,-0.0114,-0.0095,0,0,-0.0161,-0.0163,-0.016,-0.0169,-0.0155,-0.0184,-0.0148,-0.0189,-0.0226,-0.026,-0.0259,-0.0203,-0.021,-0.0182,0.0022,0.0037,0,0,0,-0.0156,-0.0144,-0.0145,-0.0131,-0.014,-0.0123,-0.0141,-0.014,-0.0144,-0.0223,-0.0173,-0.018,-0.0165,-0.0128,-0.0115,-0.0257,-0.0257,-0.0257,-0.0258,-0.0115,-0.0118,-0.0103,-0.0095,-0.0083,-0.0066,-0.0052,-0.005,-0.0089,-0.0055,-0.0101,-0.0006,0.0039,0.0048,-0.0059,-0.0059,-0.0059,-0.0059,-0.0058,-0.01,-0.0097,-0.007,-0.0064,-0.0039,-0.0008,0.0024,0.0027,0.0044,0.0006,0.0018,-0.0029,0.0066,-0.0052,-0.0054,-0.0054,-0.0055,-0.0055,-0.0056,-0.009,-0.0092,-0.0081,-0.0054,-0.0015,0.0014,0.006,0.0073,0.0082,0.0099,0.0118,0.0117,-0.0003,0.0104,0.0104,0.0104,0.0104,0.0104,0.0104,-0.0103,-0.009,-0.0075,-0.0048,-0.0024,0.0015,0.007,0.0109,0.0168,0.0183,0.0184,0.0047,0.0042,0.0007,0.0107,0.0106,0.0106,0.0106,0.0106,-0.0105,-0.01,-0.008,-0.006,-0.0002,0.0058,0.0102,0.0216,0.025,0.0299,0.0239,0.0235,0.0208,0.0198,0.0168,0.0303,0.0303,0.0303,0.0303,-0.0105,-0.0102,-0.0069,-0.0034,0.0021,0.0081,0.0198,0.0316,0.0383,0.0412,0.0407,0.0403,0.0394,0.0374,0.0361,0.0332,0.0509,0.051,0.051,-0.0095,-0.0091,-0.0063,-0.003,0.0037,0.0121,0.0243,0.0337,0.0432,0.0515,0.0408,0.0323,0.0304,0.0294,0.0249,0.0233,0.018,0,0]}],[{"header":{"parameterUnit":"m.s-1","parameterCategory":2,"la1":30.2992,"la2":30.254,"lo1":-89.0895,"lo2":-89.0443,"dy":0.0025,"dx":0.0025,"nx":19,"ny":19,"refTime":"2026-04-13T09:00:00:Z","depth":"4","parameterNumber":2,"parameterNumberName":"U-component_of_CURRENTS"},"data":[0,0,0,-0.0457,-0.0457,-0.0344,-0.0343,-0.0117,-0.0116,0,0,0,0,0,0,0,0,0,0,0,-0.0483,-0.0484,-0.0457,-0.0457,-0.0344,-0.0343,-0.0118,-0.0116,0,0,0,0,0,0,0,0,0,0,0,-0.0483,-0.0484,-0.0484,-0.0457,-0.0345,-0.0343,-0.0118,-0.0208,0,0,0,0,0,0,0,0,0,0,-0.0321,-0.0377,-0.0483,-0.0484,-0.0457,-0.0345,-0.0343,-0.0213,-0.0203,-0.0165,0,-0.0183,0,-0.0177,-0.0105,-0.0104,0,0,0,-0.0394,-0.0386,-0.0373,-0.0484,-0.0457,-0.0345,-0.0377,-0.0207,-0.0196,-0.0151,-0.018,-0.0173,-0.0173,-0.0104,-0.0103,0.0087,0.0087,0,0,-0.0401,-0.0431,-0.0382,-0.0368,-0.0473,-0.0382,-0.0375,-0.02,-0.0196,-0.018,-0.0168,-0.0169,-0.0102,-0.0101,0.0086,0.0087,0,0,0,-0.0461,-0.0436,-0.0427,-0.0376,-0.0381,-0.038,-0.0372,-0.0202,-0.0206,-0.0166,-0.0167,-0.0101,-0.0099,0.0085,0.0086,0.0147,0,0,0,-0.0461,-0.0476,-0.0431,-0.0443,-0.0386,-0.0303,-0.0378,-0.0217,-0.0198,-0.0168,-0.0101,-0.0098,0.0084,0.0086,0.0144,0.0121,0,0,0,-0.048,-0.0477,-0.0482,-0.0446,-0.0429,-0.0306,-0.0296,-0.0212,-0.0202,-0.0104,-0.0097,0.0083,0.0085,0.014,0.0117,0.0117,0,0,0,-0.0486,-0.0492,-0.0484,-0.0484,-0.0431,-0.0346,-0.0297,-0.0173,-0.0082,-0.0101,0.0084,0.0086,0.0139,0.0115,0.0116,-0.0066,0,0,0,-0.049,-0.0493,-0.0491,-0.0482,-0.0448,-0.0354,-0.0242,-0.009,-0.0043,0.0041,0.0046,0.0145,0.0117,0.0117,0.0052,0,0,0,0,-0.0488,-0.049,-0.0479,-0.0463,-0.0402,-0.0285,-0.0147,-0.0075,0.0082,0.0001,0.0167,0.0147,0.0145,0.0037,0.0096,0.0095,0.0095,0.0095,0.0095,-0.0484,-0.0473,-0.046,-0.0421,-0.0353,-0.0197,-0.0084,0.0045,0.0106,0.0198,0.0216,0.0277,0.0171,0.0263,0.0264,0.0264,0.0264,0.0264,0.0265,-0.0469,-0.0458,-0.0431,-0.0389,-0.0287,-0.0147,0.0017,0.0114,0.0247,0.0282,0.0279,0.0133,0.0271,0.027,0.0269,0.0268,0.0268,0.0267,0.0267,-0.0451,-0.0447,-0.0419,-0.0358,-0.0227,-0.0071,0.0031,0.0179,0.0277,0.0315,0.0197,0.0296,0.0266,0.0341,0.0341,0.0341,0.0341,0.0341,0.0341,-0.0426,-0.0425,-0.0399,-0.0315,-0.0244,-0.0108,0.0071,0.0098,0.0203,0.0209,0.0336,0.0301,0.0299,0.0269,0.034,0.034,0.034,0.034,0.034,-0.041,-0.0421,-0.0399,-0.0359,-0.0259,-0.0193,-0.0044,-0.0006,0.0014,-0.0015,0.014,0.015,0.0091,0.0093,0.0053,0.0063,0.0061,0.0059,0,-0.0406,-0.0413,-0.0416,-0.041,-0.0369,-0.0264,-0.0267,-0.0224,-0.0122,-0.0091,-0.0017,0.0159,0.0166,0.0098,0.0096,0.0049,0,0,0,-0.0408,-0.0414,-0.0423,-0.0444,-0.0413,-0.0375,-0.0265,-0.0247,-0.0107,-0.0199,0.0005,0.0019,0.0067,0.0338,0.027,0.0267,0.0215,0,0]},{"header":{"parameterUnit":"m.s-1","parameterCategory":2,"la1":30.2992,"la2":30.254,"lo1":-89.0895,"lo2":-89.0443,"dy":0.0025,"dx":0.0025,"nx":19,"ny":19,"refTime":"2026-04-13T09:00:00:Z","depth":"4","parameterNumber":3,"parameterNumberName":"V-component_of_CURRENTS"},"data":[0,0,0,0.0524,0.0527,0.0695,0.0696,0.0723,0.0722,0,0,0,0,0,0,0,0,0,0,0,0.0463,0.0464,0.0523,0.0527,0.0695,0.0696,0.0723,0.0722,0,0,0,0,0,0,0,0,0,0,0,0.0462,0.0463,0.0465,0.0528,0.0695,0.0696,0.0723,0.0644,0,0,0,0,0,0,0,0,0,0,0.0505,0.0503,0.0463,0.0465,0.0529,0.0695,0.0696,0.0643,0.0649,0.059,0,0.0619,0,0.0665,0.0719,0.0719,0,0,0,0.0534,0.0498,0.0512,0.0465,0.053,0.0695,0.0621,0.0648,0.0655,0.0598,0.062,0.0623,0.0665,0.0719,0.0718,0.066,0.066,0,0,0.0525,0.0519,0.0508,0.0517,0.0573,0.0616,0.0626,0.0654,0.0674,0.062,0.0624,0.0665,0.0718,0.0718,0.066,0.066,0,0,0,0.0493,0.0513,0.0532,0.0514,0.0557,0.0621,0.0633,0.0674,0.0672,0.0625,0.0666,0.0718,0.0717,0.066,0.066,0.0692,0,0,0,0.0488,0.0494,0.0527,0.053,0.0557,0.0651,0.0651,0.067,0.0676,0.0666,0.0718,0.0717,0.0661,0.066,0.0692,0.0718,0,0,0,0.0455,0.0492,0.0504,0.0528,0.0596,0.0652,0.0656,0.0674,0.0698,0.0719,0.0717,0.0661,0.066,0.0692,0.0717,0.073,0,0,0,0.0452,0.0469,0.0505,0.0552,0.0594,0.0666,0.0657,0.0711,0.0732,0.0718,0.0661,0.066,0.0692,0.0716,0.073,0.059,0,0,0,0.0458,0.0471,0.0497,0.0532,0.0587,0.0644,0.0707,0.0722,0.0693,0.064,0.0641,0.0692,0.0717,0.073,0.055,0,0,0,0,0.049,0.0517,0.054,0.0596,0.0639,0.0704,0.0742,0.0729,0.0703,0.0702,0.0669,0.0683,0.0691,0.0605,0.0657,0.0657,0.0657,0.0657,0.0657,0.0513,0.0537,0.0579,0.0625,0.0682,0.0737,0.0766,0.0748,0.0715,0.0691,0.0692,0.0701,0.0608,0.0664,0.0664,0.0664,0.0664,0.0664,0.0664,0.0517,0.0535,0.0602,0.0667,0.0724,0.079,0.0783,0.0766,0.0737,0.07,0.0705,0.0622,0.0667,0.0667,0.0666,0.0666,0.0666,0.0665,0.0665,0.0511,0.0511,0.0595,0.0685,0.0765,0.082,0.0818,0.0796,0.0764,0.0767,0.0656,0.0722,0.0741,0.0757,0.0757,0.0757,0.0758,0.0758,0.0758,0.0451,0.0512,0.059,0.07,0.0776,0.0831,0.0833,0.082,0.0795,0.068,0.0769,0.0732,0.0729,0.0745,0.076,0.076,0.076,0.0759,0.0759,0.0417,0.0481,0.0558,0.0653,0.077,0.0768,0.0834,0.0748,0.0729,0.0664,0.063,0.0636,0.0615,0.0615,0.0627,0.0608,0.0606,0.0604,0,0.04,0.0427,0.0532,0.0608,0.0654,0.0705,0.0643,0.0647,0.0591,0.0527,0.0721,0.0684,0.0686,0.0665,0.0662,0.0675,0,0,0,0.039,0.042,0.0476,0.0549,0.0575,0.0539,0.0601,0.0523,0.0629,0.056,0.0561,0.0573,0.0759,0.0768,0.075,0.0747,0.0771,0,0]}]]